Regional Weather Roundup
Issued by NWS Charleston, SC

Home | Current Version | Previous Version | Text Only | Print | Product List | Glossary On
Versions: 1 2 3 4 5 6 7 8 9 10 11 12 13 14 15 16 17 18 19 20 21 22 23 24 25 26 27 28 29 30 31 32 33 34 35 36 37 38 39 40 41 42 43 44 45 46 47 48 49 50
000
ASUS42 KCHS 231727
RWRCHS

Regional Weather Roundup
National Weather Service Charleston SC
100 PM EDT MON APR 23 2018

NOTE: "fair" indicates few or no clouds below 12,000 feet with no
significant weather and/or obstructions to visibility.

Not all stations are quality controlled. Use data with caution,
especially dewpoint observations.

SCZ027-030-031-034>040-042>050-231800-
...Southeast South Carolina...

CITY           SKY/WX    TMP DP  RH WIND       PRES   REMARKS
N Charleston   RAIN      65  63  93 E21       30.08F FOG
Waterfront Prk   N/A     65  64  97 E20       29.95F
Mount Pleasant HVY RAIN  64  64 100 E12G22    30.10F
Johns Island   LGT RAIN  66  66 100 E25G33    30.06F
Pinopolis      NOT AVBL
Moncks Corner  RAIN      63  61  94 E12G18    30.09F
Summerville    RAIN      63  61  94 E9G18     30.08F
Beaufort MCAS  RAIN      68  68 100 SE17G30   30.02R VSB 3/4
Beaufort Arpt  RAIN      66  64  94 E13G21    30.02R
Hilton Head Is LGT RAIN  66  66 100 SE10G23   30.03S
Walterboro     HVY RAIN  63  63 100 E15G25    30.04F
Allendale        N/A     66  64  94 SE10G20   30.02F FOG

...Southern Midlands and Pee Dee...

CITY           SKY/WX    TMP DP  RH WIND       PRES   REMARKS
Georgetown     DRIZZLE   63  63 100 E14       30.18F
Kingstree      DRIZZLE   63  63 100 E14G24    30.15F
Orangeburg     CLOUDY    66  60  81 E13G22    30.06F
Barnwell       DRIZZLE   64  63  94 E10       30.03F
Aiken          RAIN      59  59 100 E12G17    30.08F
Manning        RAIN      61  59  94 SE10G20   30.10F
Columbia       LGT RAIN  64  62  93 E18       30.08F
Sumter         LGT RAIN  61  61 100 E15G23    30.10F FOG
Florence       LGT RAIN  64  61  90 E21       30.18F
Myrtle Beach   LGT RAIN  65  60  84 E15G23    30.22F
N Myrtle Beach LGT RAIN  65  60  84 E17G25    30.21F

$$

GAZ063-065-086>088-099>101-113>116-118-119-134>141-150-231800-
...Southeast Georgia...

CITY           SKY/WX    TMP DP  RH WIND       PRES   REMARKS
Savannah Arpt  CLOUDY    71  69  93 S10       30.01F
Hunter AAF     CLOUDY    70  68  93 SE12      29.99
Fort Stewart   PTSUNNY   73  69  88 SE7       29.97F
Statesboro     CLOUDY    72  64  77 E7        30.00F
Sylvania       CLOUDY    70  68  94 E7        30.01F
Claxton        CLOUDY    74  70  85 CALM      30.00F

...CSRA, Central and far Southeast Georgia...

CITY           SKY/WX    TMP DP  RH WIND       PRES   REMARKS
Thomson        CLOUDY    70  65  85 S10       30.07F
Augusta-Bush   HVY RAIN  64  62  93 CALM      30.05S VSB 3/4
Augusta-Daniel LGT RAIN  64  62  93 CALM      30.06F FOG
Swainsboro     CLOUDY    72  68  88 E7        30.01F
Vidalia        CLOUDY    73  70  88 SE5       29.99F
Eastman        PTSUNNY   80  61  53 S6        29.99F
Hazlehurst     PTSUNNY   78  67  68 S6        29.96F
Alma           PTSUNNY   78  68  71 SW7       29.97F
Waycross       CLOUDY    77  71  82 SE5       29.97F
Jesup          NOT AVBL
Baxley         PTSUNNY   73  70  88 S8        29.97F
Brunswick      PTSUNNY   73  68  83 SE7       30.01S
Saint Simons   CLOUDY    70  69  97 SE7       30.00F

$$

SCZ027-028-034-036>038-045-046-048>050-GAZ119-141-231800-
...Lake and Supplemental Coastal Observations...

STATION/POSITION TIME  TEMP    WIND        PRES    WAVE   SWELL
                       AIR SEA DIR/SP/G            HT/PER HT/PER/DIR
                 (UTC) (F)     (DEG/KT/KT) (MB)    (FT/S) (FT/S/D)
Winyah Bay       1645   65     110/ 12     1022.0S
Lake Murray      1620   60     100/ 13/ 15 1019.0F
ACE Basin NERRS  1645   66     350/ 10       N/A
Fort Pulaski     1700   68 65  150/  9/ 14 1016.8
Sapelo Island    1700   71     160/  7     1016.0

$$

ANZ835-935-AMZ111-154-330-350-352-354-370-450-454-472-231800-
...C-MAN and Buoy Observations...

STATION/POSITION TIME  TEMP    WIND        PRES    WAVE   SWELL
                       AIR SEA DIR/SP/G            HT/PER HT/PER/DIR
                 (UTC) (F)     (DEG/KT/KT) (MB)    (FT/S) (FT/S/D)
Buoy 41004       1710   68 67  110/ 21/ 29 1019.8
Buoy 41008       1650   67 65  140/ 10/ 12 1016.3F   8/ 9   7/130/ 9
Folly Beach CMAN NOT AVBL
Capers Nearshore 1708   65 63  100/ 21/ 27 1018.7F
Fripp Nearshore  1708   66 64  130/ 16/ 29 1016.3F


STATION/POSITION TIME  TEMP    WIND        PRES    WAVE   SWELL
                       AIR SEA DIR/SP/G            HT/PER HT/PER/DIR
                 (UTC) (F)     (DEG/KT/KT) (MB)    (FT/S) (FT/S/D)
5E St. Marys GA  1700      67                N/A     7/ 8
Frying Pan Buoy  1710   69 70  110/ 25/ 31 1023.2
Buoy 41025       1710   67 71  110/ 19/ 25 1028.4
Cape Lookout NC  NOT AVBL
Buoy 41002       1710   69 72  110/ 19/ 23 1024.7
Buoy 41010       1710   73 75  120/ 19/ 27 1019.1
St Augustine FL  1700   72 68  200/  7/ 10 1016.4F


$$



USA.gov is the U.S. government's official web portal to all federal, state and local government web resources and services.